RH
8 7 8 11 14 15 14 12 11 17 23 24 26 27 30 33 33 36 39 40 41 42 42 44 45 44 44 44 45 46 46 46 47 49 51 51 54 56 56 57 58 61 64 64 65 65 66 64 63 62 62 61 60 61 60 59 62 69 84 94 94 92 87 83 87 92 92 91 90 90 90 90 88 83 81 83 84 84 82 78 74 70 67 63 60 58 57 59 62 62 62 62 62 59 56 56 57
10 9 12 13 14 14 13 13 16 23 25 24 28 31 31 36 37 40 42 42 42 42 44 45 46 46 46 47 48 49 50 50 52 52 52 55 56 57 58 58 58 60 62 63 64 65 66 64 63 62 61 61 61 64 65 65 68 70 81 89 91 95 94 88 85 87 88 87 88 91 92 93 90 86 85 88 88 86 83 79 74 70 66 64 61 61 60 60 61 62 63 63 63 62 59 58 58
13 13 14 14 14 13 14 14 18 23 23 24 31 33 33 37 40 42 43 44 43 42 45 46 46 47 47 48 48 49 51 52 55 56 57 58 57 58 59 59 59 59 60 61 62 62 61 61 62 61 61 64 64 65 66 68 69 69 82 86 81 86 91 90 85 84 85 84 90 94 94 94 91 89 89 90 88 85 82 79 76 71 67 66 65 64 64 63 62 63 64 64 63 62 60 58 58
14 14 14 15 14 13 19 21 22 25 23 26 31 33 35 39 41 43 43 44 44 43 45 46 46 46 46 46 46 48 50 51 53 55 57 57 57 59 59 60 61 61 61 61 62 60 58 60 63 61 59 64 67 67 67 68 68 66 83 97 93 91 89 90 88 84 86 89 95 96 95 95 92 89 88 86 85 82 79 78 77 75 74 74 72 70 69 66 65 64 63 61 60 59 58 58 58
15 15 15 14 14 14 21 24 26 29 26 29 32 33 36 39 40 41 42 42 43 43 44 45 45 46 45 45 44 45 46 48 50 51 52 53 54 56 56 58 60 62 63 63 63 60 59 63 66 66 64 65 68 69 70 70 70 65 73 89 94 94 89 87 88 87 90 94 96 96 95 95 90 86 83 82 83 81 79 78 77 78 78 78 76 74 72 68 66 63 61 59 59 60 60 59 59
14 15 14 13 14 15 22 26 29 31 30 33 35 38 38 38 40 41 42 42 42 43 43 44 44 44 43 44 44 44 45 46 47 48 48 50 51 53 54 55 58 61 63 64 64 61 59 60 63 69 68 70 75 74 73 71 72 70 69 76 82 86 87 88 91 92 94 96 96 96 93 90 85 83 82 82 82 80 77 76 75 76 75 74 74 73 71 68 65 64 62 61 61 62 62 61 60
14 14 13 15 18 20 27 30 32 33 33 34 36 40 41 39 39 42 44 44 43 43 42 42 42 42 41 42 42 42 43 43 45 46 46 47 49 50 51 53 55 58 60 63 65 62 59 58 59 66 68 73 84 84 80 77 77 77 75 81 86 87 89 95 97 95 97 99 96 93 88 84 83 82 83 83 82 80 78 78 78 77 77 75 73 71 69 68 67 65 63 63 62 62 61 60 59
14 14 13 19 26 28 33 33 34 35 36 37 35 38 39 39 40 42 45 42 41 41 40 40 40 40 39 40 40 41 41 42 42 42 43 44 46 48 49 51 54 55 58 60 62 60 58 60 60 65 68 73 82 84 82 85 87 85 84 88 91 89 89 94 96 92 94 95 91 86 82 82 83 81 82 84 83 83 82 84 83 81 80 78 77 73 71 71 70 68 65 63 62 60 59 59 59
14 14 16 24 30 32 34 33 34 35 36 38 37 38 38 38 39 40 42 40 40 39 39 38 37 37 37 39 39 39 39 39 39 39 40 41 43 46 48 50 54 57 59 60 60 58 57 58 62 69 70 70 76 78 79 85 90 88 86 87 89 88 87 90 91 88 89 88 84 82 80 80 83 83 85 87 86 86 85 85 84 82 82 81 80 78 76 73 72 71 68 64 61 60 59 58 56
15 16 18 27 32 32 34 33 34 33 34 38 38 38 37 37 38 38 39 39 40 39 38 38 37 37 37 38 38 37 37 37 38 38 38 39 42 44 48 52 55 57 58 59 59 60 59 56 67 82 83 78 79 78 77 83 90 90 87 88 89 87 86 88 89 88 87 85 83 82 81 80 84 86 88 88 87 86 86 85 85 84 83 82 81 82 80 77 76 73 69 66 62 59 57 55 52
17 18 20 30 33 31 33 34 34 33 34 37 36 36 36 37 37 38 39 40 40 40 40 39 39 39 38 39 38 37 37 37 38 38 39 40 42 44 48 52 55 56 56 57 59 61 61 58 66 81 88 86 83 80 78 83 91 96 94 93 93 90 88 88 86 85 86 85 83 82 81 80 81 83 87 89 87 86 86 86 86 86 84 82 80 80 79 77 75 71 67 66 63 58 53 51 50
19 23 26 31 33 31 32 34 35 35 36 37 36 34 36 36 37 39 40 40 41 41 40 39 39 39 40 40 39 37 38 38 38 39 39 40 43 46 48 51 54 56 56 57 57 57 61 66 66 68 75 79 78 78 83 88 92 96 96 95 93 92 90 89 87 85 87 88 85 83 83 82 80 81 85 84 83 83 84 83 83 82 79 76 75 74 74 74 74 71 69 68 64 57 51 48 46
22 27 31 31 31 34 35 36 36 36 38 37 35 35 36 37 37 39 41 41 41 41 40 38 39 40 40 40 38 37 38 38 38 38 38 41 43 46 49 51 54 55 55 55 56 57 62 69 69 64 67 73 73 73 81 89 91 92 94 93 91 89 89 90 89 86 88 89 86 87 88 88 87 85 84 82 82 82 81 78 76 73 70 68 69 70 72 74 74 71 68 67 64 61 55 48 44
23 25 31 33 33 37 36 37 38 37 38 37 35 35 37 37 39 40 39 39 40 38 37 36 38 39 40 40 38 36 38 38 37 38 38 40 42 44 48 51 53 55 54 55 56 58 59 60 66 70 71 74 79 80 81 85 88 88 90 92 90 90 90 90 90 88 88 88 87 88 88 88 87 86 85 85 84 80 77 74 69 68 67 68 69 71 73 74 73 70 66 62 60 59 54 50 47
24 23 31 36 35 37 35 38 39 38 39 38 35 36 37 38 39 40 38 37 37 36 35 36 37 38 38 39 38 35 37 38 37 38 39 40 41 41 43 47 52 53 53 54 56 58 59 58 64 74 77 76 79 84 83 82 86 87 87 88 87 88 88 89 91 90 90 89 88 88 86 86 87 87 87 85 82 78 75 73 72 73 73 73 74 74 75 75 73 71 67 61 58 57 54 55 53
24 25 34 36 34 35 34 38 39 38 39 38 36 36 37 38 37 38 36 36 36 35 36 36 36 37 37 37 36 35 37 38 38 38 39 40 41 39 39 44 48 51 51 53 55 58 62 64 67 72 80 81 76 80 82 83 86 84 84 86 86 85 84 85 85 88 90 91 90 89 88 88 88 88 86 83 80 76 74 74 76 76 76 76 75 73 73 72 70 68 66 63 62 61 60 58 53
22 27 37 36 34 34 34 38 37 36 38 37 36 36 37 38 36 35 34 34 35 36 37 37 36 36 36 36 36 35 36 37 38 38 39 40 40 39 39 41 44 48 52 54 55 58 62 67 69 71 80 87 83 82 84 86 87 82 81 86 88 86 84 83 82 85 90 90 89 89 89 89 87 84 81 79 76 73 72 74 75 75 75 74 73 72 71 70 68 68 67 65 61 58 54 50 46
25 33 36 34 35 33 34 37 35 34 35 36 35 35 35 35 35 34 34 35 37 38 38 38 39 38 37 37 36 35 35 36 38 39 40 41 39 38 38 40 42 45 49 53 55 57 60 63 67 69 76 87 88 86 85 84 86 84 82 87 89 87 86 86 85 86 87 88 88 87 87 86 83 80 78 77 75 73 72 73 74 74 75 75 74 72 69 69 68 67 64 59 53 49 46 45 45
28 37 36 34 36 32 32 34 33 32 33 34 34 32 32 32 33 33 35 37 38 39 39 39 40 39 38 38 37 35 34 35 38 39 41 42 41 40 39 40 41 43 47 52 56 56 57 58 62 66 71 82 90 89 87 84 84 83 83 87 89 86 84 83 83 83 84 85 85 84 83 82 80 79 78 78 76 74 72 72 72 72 74 75 73 71 68 67 62 57 54 50 46 44 44 44 44
26 34 35 35 35 32 31 31 31 30 30 31 32 31 31 31 32 32 34 35 37 37 37 37 38 37 38 38 38 36 34 34 37 39 41 43 44 43 43 44 43 44 47 53 57 57 57 57 58 58 61 72 83 88 87 86 84 83 83 86 87 84 80 78 78 79 81 81 81 79 76 75 74 73 73 72 70 70 69 69 68 69 69 68 66 63 60 56 51 48 46 45 43 42 42 43 42
24 30 33 34 33 31 29 28 28 28 28 28 29 30 31 31 31 31 32 32 35 34 31 32 33 35 37 39 38 37 34 33 36 39 41 43 45 46 46 46 47 47 49 53 56 58 59 56 54 53 57 63 71 80 85 86 86 85 85 86 85 83 80 79 78 78 79 78 76 75 73 71 69 68 66 65 63 63 63 63 63 62 60 57 54 50 47 45 44 43 42 41 41 40 40 40 39
25 29 30 31 31 29 27 26 26 26 27 27 28 30 29 29 29 30 30 31 32 30 28 29 31 33 37 39 40 39 36 34 35 38 40 42 44 46 47 46 47 50 52 55 56 59 60 58 57 56 58 60 62 68 72 76 82 85 86 86 86 84 82 81 81 81 79 77 74 72 71 69 67 66 64 61 59 58 57 56 55 53 52 49 46 44 42 40 39 39 39 38 38 37 37 36 35
25 28 28 29 29 27 26 26 26 26 26 26 27 28 27 28 28 28 30 30 28 27 28 30 31 33 36 38 39 38 37 36 36 37 40 42 43 46 48 48 48 50 54 58 59 60 61 61 61 59 59 59 60 61 62 65 72 80 85 87 87 85 82 81 81 81 79 76 74 71 68 67 65 63 60 57 55 53 52 51 50 49 48 46 44 43 41 39 38 37 37 36 36 36 36 35 34
26 29 29 30 29 28 27 26 26 25 25 25 26 26 26 28 27 27 29 27 26 28 30 32 32 33 35 37 39 38 38 37 36 38 41 43 46 49 51 52 52 53 57 61 62 62 63 62 61 60 61 61 61 62 64 65 67 73 80 84 85 83 81 80 80 78 76 73 71 69 66 64 63 60 58 55 52 50 49 48 47 47 46 46 45 43 42 40 39 37 37 36 36 36 36 36 36
27 28 29 30 30 29 28 26 25 25 25 25 26 26 26 27 28 28 27 25 26 28 31 33 34 35 36 37 38 39 39 39 39 41 44 48 50 53 56 56 56 58 60 63 65 66 65 64 62 63 64 66 67 66 65 64 64 67 72 78 80 80 79 78 77 75 72 70 68 66 65 63 61 58 55 53 51 49 48 47 46 46 47 47 46 45 45 43 42 41 39 38 38 38 38 38 38
28 29 30 30 30 29 27 26 25 25 25 26 27 28 27 27 29 29 26 25 27 28 30 32 35 36 38 39 40 41 41 42 43 44 46 50 52 55 56 57 57 58 60 62 65 67 66 65 66 65 65 65 66 66 64 63 63 64 67 72 75 76 75 74 72 70 68 66 65 65 63 61 58 56 53 52 51 50 49 48 47 47 47 47 47 47 47 46 46 44 43 42 41 41 41 41 41
28 30 31 30 30 29 27 27 27 26 26 27 28 29 28 27 30 31 26 25 26 27 28 30 32 34 35 37 39 42 45 46 46 46 47 50 52 54 56 57 58 58 58 60 63 65 66 66 67 67 66 65 64 65 66 66 66 66 66 67 67 67 67 67 66 65 63 62 63 64 62 59 55 54 53 53 52 52 51 50 50 49 49 48 47 47 47 48 47 46 46 45 44 42 42 42 42
28 29 30 30 30 28 28 28 27 28 28 28 29 29 29 29 33 32 27 26 26 26 27 29 30 31 32 33 34 37 42 46 48 49 49 51 52 53 55 56 57 57 57 58 60 63 66 67 67 67 68 67 67 67 68 69 70 70 69 68 67 65 64 64 63 62 62 63 63 62 62 59 56 53 52 52 52 53 53 53 53 52 52 50 49 48 47 47 47 47 46 45 45 43 42 42 42
30 30 31 34 33 29 29 30 29 29 30 30 30 31 31 33 34 30 28 28 28 28 29 30 31 32 33 34 34 35 38 41 43 46 50 53 54 55 56 56 57 58 57 57 58 61 64 66 66 66 67 68 69 70 69 69 68 68 67 66 66 65 64 64 63 63 65 66 66 63 62 60 55 53 53 53 52 52 53 54 54 53 52 51 50 49 48 47 47 46 45 44 44 43 43 43 43
33 32 33 35 34 32 30 31 30 30 32 31 32 33 32 35 33 29 29 30 29 30 30 31 32 33 34 35 36 37 38 40 40 42 46 50 54 56 57 58 59 59 59 58 58 60 62 63 63 63 63 65 66 67 68 69 69 67 65 63 62 61 61 60 59 59 60 61 61 58 57 57 54 52 52 52 50 47 47 48 48 48 47 48 48 47 46 46 45 44 44 43 42 42 43 44 45
35 33 34 35 32 32 33 32 33 33 34 31 33 36 31 31 32 29 30 31 30 31 31 33 34 34 35 36 37 37 39 41 41 42 43 45 48 52 56 59 60 60 60 60 60 60 61 61 61 61 61 61 61 62 64 66 67 66 64 62 61 59 57 56 54 53 54 54 52 50 50 51 51 50 49 48 46 45 45 45 45 45 45 45 46 45 45 45 45 45 44 44 45 45 46 48 49
36 31 34 36 32 33 34 33 35 35 35 33 34 38 32 30 32 30 31 32 32 32 32 34 35 35 36 36 37 38 38 41 42 43 44 44 45 47 51 56 60 61 61 61 62 61 62 61 61 61 61 61 61 61 61 61 62 62 60 59 58 56 54 54 53 52 52 50 48 48 47 47 48 50 52 52 51 50 51 52 52 52 51 51 51 50 50 51 51 51 51 51 52 52 53 54 55
37 33 33 35 33 34 32 32 36 35 36 35 35 38 34 30 31 31 31 32 33 33 33 34 34 35 36 37 37 37 38 40 41 43 45 46 46 46 47 50 55 59 61 62 62 62 63 63 63 63 62 63 63 62 61 60 60 59 59 58 56 54 54 54 55 55 53 51 53 54 55 58 59 58 58 59 59 59 60 60 60 61 61 61 61 61 60 60 60 59 59 58 58 57 57 58 58
34 32 32 34 33 33 31 31 34 35 37 37 38 39 34 30 30 30 31 32 33 34 33 33 34 35 36 37 38 38 39 39 40 42 44 46 47 47 47 48 49 53 56 57 58 60 61 62 62 62 62 62 61 61 60 60 59 59 58 57 56 55 55 56 57 57 57 57 58 60 62 68 71 67 64 64 66 67 67 66 66 67 68 67 67 67 66 66 65 65 63 61 60 59 59 59 59
30 32 32 33 32 32 32 30 33 38 39 40 42 40 35 32 32 31 32 33 33 33 34 35 36 37 37 38 38 38 39 38 39 41 43 45 47 48 48 48 48 48 49 51 52 54 55 56 57 57 58 58 59 60 59 59 59 59 59 57 56 54 54 56 58 58 59 60 61 63 64 66 67 66 66 68 70 71 69 68 69 70 70 69 67 66 66 67 68 67 66 64 62 62 62 62 60
30 34 35 35 33 33 33 33 36 40 42 42 42 39 36 34 31 31 33 34 33 34 36 38 38 39 39 38 38 38 38 37 38 40 41 43 46 47 49 49 49 49 49 49 49 50 51 52 53 54 55 55 57 58 57 57 57 58 59 58 57 56 55 59 59 58 58 60 63 64 64 64 65 68 69 70 71 72 70 69 70 71 71 70 69 69 71 71 71 69 67 65 64 64 64 62 61
31 33 34 35 35 33 32 34 38 40 42 43 41 40 39 36 32 32 32 34 35 38 39 41 41 41 40 39 39 38 38 37 38 39 39 41 43 46 48 50 50 50 50 50 50 50 51 52 53 54 55 56 56 56 55 53 51 52 55 57 58 57 57 60 60 59 59 61 62 63 64 66 68 71 72 71 72 73 71 69 70 72 72 73 72 73 73 73 71 70 68 66 65 64 64 62 61
32 33 34 35 36 34 31 34 38 41 43 42 41 41 39 35 34 32 33 37 38 39 41 42 42 42 40 40 39 39 38 38 38 38 38 39 41 43 47 49 50 50 50 51 52 52 52 52 53 53 54 54 54 53 52 49 46 45 47 49 53 54 55 57 58 59 60 60 61 62 64 67 69 71 71 71 73 74 73 71 73 76 78 77 76 74 73 72 71 70 68 67 66 65 65 64 63
33 34 34 36 37 36 35 36 39 42 44 43 43 42 37 34 34 32 34 38 38 38 40 41 41 41 40 40 40 39 39 38 38 38 38 38 39 41 43 45 47 49 51 52 53 53 53 52 52 52 52 52 51 50 48 45 42 39 38 40 43 46 48 52 54 54 55 56 57 59 61 64 67 69 71 73 75 76 78 79 81 83 83 81 78 76 75 74 74 72 71 70 70 70 69 67 66
35 35 35 37 36 37 39 38 41 43 44 44 45 43 35 32 32 31 34 37 37 39 40 41 41 41 41 40 40 39 39 38 38 38 38 38 39 39 40 41 43 46 49 51 52 53 53 53 52 52 52 51 50 49 47 45 42 38 36 36 38 40 42 47 49 50 51 52 53 55 57 59 62 65 67 69 72 75 79 81 83 84 82 79 76 76 75 75 74 73 72 72 72 70 68 67 65
38 38 37 36 36 38 40 40 41 42 43 43 43 42 35 32 33 32 34 37 38 40 42 43 43 42 43 42 41 40 39 38 38 38 38 38 37 36 36 36 38 40 43 46 49 51 51 51 51 50 50 49 48 48 46 43 40 38 36 36 37 39 42 46 49 51 51 52 52 53 54 56 58 60 62 65 68 72 75 77 80 81 78 74 72 72 70 69 69 68 69 69 69 67 65 64 63
40 40 38 36 37 39 40 42 43 44 46 43 43 46 42 35 36 36 38 42 42 42 44 43 42 43 43 42 39 38 38 37 37 36 36 35 33 33 32 32 34 35 38 41 44 47 48 48 48 48 47 47 47 46 45 42 38 36 35 35 37 40 44 48 51 53 53 54 54 54 54 55 57 58 60 64 67 70 72 75 77 76 74 71 69 68 67 67 66 66 67 67 66 65 63 62 61
42 40 39 39 40 42 43 46 46 48 50 47 47 54 50 35 31 38 43 45 44 43 45 43 42 42 40 38 36 35 35 34 33 32 31 31 30 30 30 30 32 33 34 37 39 41 43 44 44 45 45 45 45 45 45 42 38 36 35 34 35 38 42 47 51 54 55 56 56 56 56 57 57 59 61 65 68 70 72 74 73 72 71 70 70 69 69 69 69 68 67 66 65 64 63 62 61
45 43 44 46 45 46 48 49 49 52 53 52 52 58 59 44 35 41 44 43 42 42 43 42 40 39 37 35 34 33 33 31 30 29 27 28 29 29 29 29 30 31 32 34 35 36 37 39 41 42 43 44 44 45 44 42 39 37 35 34 34 35 37 41 46 51 54 56 57 57 58 58 59 60 62 65 67 69 71 71 70 69 70 70 70 70 70 69 68 67 66 65 64 64 63 62 60
45 47 49 50 50 51 53 53 54 59 59 56 54 57 62 52 39 44 46 42 43 43 43 43 41 39 36 35 34 32 31 29 28 29 28 28 29 28 28 29 30 31 31 32 32 34 35 37 39 41 44 46 46 46 45 42 39 35 32 31 30 31 32 34 38 45 50 51 53 55 56 58 60 61 63 66 68 69 69 69 69 69 69 69 69 69 68 67 66 66 65 64 63 63 62 60 55
46 50 51 54 58 58 59 59 60 67 66 59 57 58 61 51 37 43 48 45 47 46 45 46 42 39 36 34 33 31 29 28 28 28 29 29 29 29 29 31 31 31 31 32 32 34 35 37 39 41 43 46 47 47 46 43 39 34 31 30 29 29 30 31 34 39 44 46 47 50 52 55 58 61 65 68 69 70 70 70 70 70 69 68 68 67 66 65 64 64 63 62 61 60 59 55 49
50 53 55 59 63 62 65 66 64 72 68 56 56 57 61 58 43 42 47 48 50 48 47 48 43 37 34 32 30 29 28 27 28 29 29 30 30 30 32 32 32 31 32 33 33 34 35 36 38 39 41 43 44 44 44 43 40 35 32 32 32 31 31 31 32 35 39 41 43 45 48 53 58 63 67 70 71 72 72 72 71 70 69 68 66 65 64 63 62 61 61 60 59 58 55 51 44
55 59 61 63 63 63 69 69 69 76 67 56 60 61 63 62 48 44 50 50 54 53 49 49 44 35 31 30 29 28 27 26 28 29 29 30 31 32 33 32 31 32 32 33 33 34 35 36 37 37 37 37 37 38 39 40 39 36 34 33 32 32 32 31 31 33 35 38 41 43 46 51 56 62 66 69 70 71 71 71 71 70 69 68 66 65 64 63 63 62 62 61 60 58 55 50 43
60 64 68 72 72 72 74 71 73 76 64 58 66 68 65 56 44 46 51 49 53 54 48 44 40 34 30 29 29 28 27 27 28 29 29 30 32 33 32 31 31 32 32 33 34 34 35 35 34 33 32 32 33 33 34 35 35 35 35 35 33 32 31 31 30 30 31 33 37 42 47 51 56 60 63 66 69 70 71 72 73 73 72 71 69 68 67 67 67 67 67 65 63 60 57 51 46
63 65 69 75 79 84 85 80 79 75 64 61 67 69 65 52 43 45 47 45 48 48 43 39 38 35 32 30 30 29 28 28 28 28 29 31 32 33 33 33 33 33 33 33 34 35 36 34 31 29 29 30 31 31 32 34 34 36 38 38 37 35 34 33 32 31 31 32 36 42 48 54 58 60 62 65 68 71 73 74 75 76 76 75 73 72 71 72 72 71 71 69 66 63 58 52 48
65 67 70 73 76 83 84 81 80 76 71 68 67 67 62 51 46 46 46 46 45 42 39 38 37 34 32 30 30 30 29 28 28 29 31 32 33 34 35 35 34 34 34 34 35 36 35 32 29 29 28 28 29 30 33 34 35 37 38 39 39 38 37 35 33 33 33 36 39 42 48 54 58 59 61 65 69 72 74 75 76 76 76 76 74 73 73 73 72 72 72 71 67 64 58 52 48
70 72 75 76 76 78 80 81 80 81 83 75 66 63 56 48 47 47 49 48 42 39 36 34 33 30 30 30 28 29 29 29 30 30 30 31 32 32 32 32 33 33 34 34 35 35 32 29 27 27 27 26 28 32 33 34 36 37 38 39 39 39 37 35 35 37 38 40 42 43 46 51 54 56 62 67 71 73 74 75 76 76 76 75 74 72 71 71 70 70 70 69 67 64 58 52 50
76 77 79 80 79 79 84 87 83 85 90 75 62 61 53 48 48 43 43 44 38 35 33 32 31 28 28 28 26 28 29 29 30 30 30 30 29 29 27 28 30 31 31 32 33 32 29 27 27 27 27 27 31 34 34 34 36 38 38 39 39 38 38 39 40 41 42 42 42 42 44 47 51 55 62 69 72 73 74 75 75 75 74 74 72 71 71 70 69 69 69 68 67 65 59 54 53
81 82 79 79 81 83 88 93 90 91 94 76 61 61 54 49 48 40 38 40 36 33 31 31 31 30 31 29 28 30 30 29 31 30 30 30 31 30 28 28 29 29 30 32 33 32 29 28 29 29 29 30 34 36 35 34 36 38 39 39 39 39 40 42 43 44 44 43 42 41 42 46 51 56 62 67 69 71 72 72 72 72 71 71 70 69 71 71 70 70 70 69 69 66 60 56 54
79 80 78 78 85 88 88 94 94 92 94 80 62 58 52 45 44 40 38 39 34 30 30 33 34 32 33 32 31 32 31 32 33 33 33 33 35 34 31 30 30 31 33 33 34 32 29 30 31 30 30 32 37 38 37 37 38 39 41 41 40 41 42 44 45 45 44 44 44 42 41 44 51 58 62 66 67 67 68 68 68 69 69 69 68 69 72 73 72 73 72 71 71 66 59 55 54
79 80 80 81 85 90 89 91 92 91 94 88 72 59 48 40 41 41 39 37 33 32 34 36 36 34 33 34 34 33 34 35 35 37 39 39 39 37 35 35 35 35 35 33 32 30 28 29 30 29 30 33 37 39 39 40 40 41 42 42 42 42 44 46 47 46 45 46 47 45 43 44 51 58 63 66 68 69 69 68 67 68 69 69 69 71 75 75 75 75 73 73 72 65 58 55 53
81 82 84 83 85 90 91 88 87 89 93 91 85 70 45 35 42 42 39 39 36 36 38 38 38 37 36 36 36 36 36 38 40 42 45 46 44 41 39 38 38 36 33 30 28 28 28 29 29 29 31 34 37 39 41 43 42 42 43 43 43 44 46 48 49 49 48 48 50 49 48 46 49 56 62 65 68 70 71 70 69 68 69 70 70 72 75 75 75 74 73 73 71 64 58 55 53
80 79 80 80 82 87 91 91 85 86 87 81 82 76 46 33 44 43 40 43 41 40 42 41 40 40 39 39 40 41 40 42 45 47 50 50 47 44 41 39 38 35 31 28 27 27 29 30 30 31 33 35 37 39 43 45 45 44 44 43 44 46 48 50 51 51 50 51 52 53 52 49 49 54 60 64 67 70 71 70 70 69 69 71 72 73 75 74 74 73 73 73 70 63 58 55 52